Champaign, IL

5:22 AM CDT on September 25, 2017 (GMT -0500)
Univ Of Illinois-Willard

Weather History for KCMI - March, 2013

Change the Weather History Date:

Thursday, March 21, 2013

  Actual Average Record
Temperature  
Mean Temperature 24 °F 43 °F  
Max Temperature 36 °F 53 °F 86 °F (2012)
Min Temperature 12 °F 32 °F 12 °F (2013)
Degree Days  
Heating Degree Days 41 22  
Month to date heating degree days 661 551  
Since 1 July heating degree days 4822 5053  
Cooling Degree Days 0 0  
Month to date cooling degree days 0 0  
Year to date cooling degree days 0 0  
Moisture  
Dew Point 10 °F    
Average Humidity 56    
Maximum Humidity 80    
Minimum Humidity 32    
Precipitation  
Precipitation T in 0.10 in 0.10 in (1950)
Month to date precipitation 0.43 1.68  
Year to date precipitation 5.49 5.75  
Sea Level Pressure  
Sea Level Pressure 30.07 in    
Wind  
Wind Speed 6 mph (NW)    
Max Wind Speed 18 mph    
Max Gust Speed 21 mph    
Visibility 9 miles    
Events Snow    
T = Trace of Precipitation, MM = Missing Value Source: NWS Daily Summary

Daily Weather History Graph

Daily Weather History Graph

Search for Another Location

Airport or City:

Trip Planner

Search our weather history database for the weather conditions in past years. The results will help you decide how hot, cold, wet, or windy it might be!

Date:

Astronomy

Mar. 21, 2013 Rise Set
Actual Time 6:54 AM CDT 7:06 PM CDT
Civil Twilight 6:27 AM CDT 7:33 PM CDT
Nautical Twilight 5:55 AM CDT 8:05 PM CDT
Astronomical Twilight 5:23 AM CDT 8:37 PM CDT
Moon 1:36 PM CDT (3/21) 3:16 AM CDT (3/21)
Length of Visible Light 13h 06m
Length of Day
12h 11m
Waxing Gibbous, 69% of the Moon is Illuminated
Mar 21
Waxing Gibbous
Mar 27
Full
Apr 2
Last Quarter
Apr 10
New
Apr 18
First Quarter

Hourly Weather History & Observations

Time (CDT) Temp. Windchill Dew Point Humidity Pressure Visibility Wind Dir Wind Speed Gust Speed Precip Events Conditions
1:36 AM 19.4 °F 4.1 °F 14.0 °F 80% 30.05 in 2.5 mi NW 18.4 mph - 0.00 in Snow Light Snow
1:53 AM 19.9 °F 7.3 °F 15.1 °F 81% 30.08 in 3.0 mi NNW 12.7 mph - 0.00 in Snow Light Snow
2:08 AM 19.4 °F 6.6 °F 12.2 °F 74% 30.04 in 10.0 mi NNW 12.7 mph - 0.00 in   Mostly Cloudy
2:53 AM 17.1 °F 6.6 °F 10.0 °F 74% 30.07 in 10.0 mi NNW 8.1 mph - 0.00 in   Clear
3:53 AM 17.1 °F 5.0 °F 10.0 °F 74% 30.06 in 10.0 mi NNW 10.4 mph - N/A   Partly Cloudy
4:53 AM 15.1 °F 5.2 °F 10.9 °F 84% 30.07 in 10.0 mi NW 6.9 mph - N/A   Clear
5:53 AM 16.0 °F 2.9 °F 9.0 °F 74% 30.08 in 10.0 mi NNW 11.5 mph - N/A   Clear
6:53 AM 14.0 °F 3.9 °F 8.1 °F 77% 30.09 in 10.0 mi NNW 6.9 mph - N/A   Clear
7:53 AM 17.1 °F 8.7 °F 10.0 °F 74% 30.11 in 10.0 mi WNW 5.8 mph - N/A   Clear
8:53 AM 19.9 °F 9.3 °F 9.0 °F 62% 30.12 in 10.0 mi NNW 9.2 mph - N/A   Clear
9:53 AM 21.9 °F 13.4 °F 9.0 °F 58% 30.12 in 10.0 mi West 6.9 mph - N/A   Clear
10:53 AM 25.0 °F 16.3 °F 8.1 °F 49% 30.12 in 10.0 mi West 8.1 mph - N/A   Clear
11:53 AM 28.0 °F 22.8 °F 7.0 °F 41% 30.11 in 10.0 mi Variable 4.6 mph - N/A   Clear
12:53 PM 30.0 °F 26.5 °F 8.1 °F 40% 30.10 in 10.0 mi Variable 3.5 mph - N/A   Clear
1:53 PM 32.0 °F 25.6 °F 8.1 °F 37% 30.08 in 10.0 mi West 6.9 mph - N/A   Clear
2:53 PM 33.1 °F - 8.1 °F 35% 30.05 in 10.0 mi Calm Calm - N/A   Clear
3:53 PM 35.1 °F 29.3 °F 8.1 °F 33% 30.04 in 10.0 mi North 6.9 mph - N/A   Clear
4:53 PM 35.1 °F 31.0 °F 9.0 °F 34% 30.04 in 10.0 mi Variable 4.6 mph - N/A   Clear
5:53 PM 35.1 °F 31.0 °F 10.0 °F 35% 30.03 in 10.0 mi NNW 4.6 mph - N/A   Clear
6:53 PM 32.0 °F - 9.0 °F 38% 30.04 in 10.0 mi Calm Calm - N/A   Clear
7:53 PM 27.0 °F 23.0 °F 12.0 °F 53% 30.06 in 10.0 mi NW 3.5 mph - N/A   Clear
8:53 PM 28.0 °F - 12.0 °F 51% 30.06 in 10.0 mi Calm Calm - N/A   Clear
9:53 PM 26.1 °F 21.9 °F 12.0 °F 55% 30.07 in 10.0 mi SSE 3.5 mph - N/A   Clear
10:53 PM 21.9 °F 15.7 °F 12.9 °F 68% 30.07 in 10.0 mi South 4.6 mph - N/A   Clear
11:53 PM 21.9 °F 14.5 °F 14.0 °F 72% 30.06 in 10.0 mi South 5.8 mph - N/A   Clear